Regional Weather Roundup
Issued by NWS

Home | Current Version | Previous Version | Graphics & Text | Print | Product List | Glossary Off
Versions: 1 2 3 4 5 6 7 8 9 10 11 12 13 14 15 16 17 18 19 20 21 22 23 24 25 26 27 28 29 30 31 32 33 34 35 36 37 38 39 40 41 42 43 44 45 46 47 48 49 50

191
ASUS44 KJAN 250710
RWRMS

MISSISSIPPI HOURLY WEATHER ROUNDUP
NATIONAL WEATHER SERVICE JACKSON MS
200 AM CDT FRI APR 25 2014

NOTE: "FAIR: INDICATES FEW OR NO CLOUDS BELOW 12,000 FEET WITH NO
SIGNIFICANT WEATHER AND/OR OBSTRUCTIONS TO VISIBILITY.

MSZ001>002-007>008-010>013-018>021-025>028-034>036-250800-
NORTHWEST MISSISSIPPI

CITY           SKY/WX    TMP DP  RH WIND       PRES   REMARKS
CLARKSDALE       N/A     61  59  94 W12       29.84R
CLEVELAND      FAIR      62  59  91 W8        29.84F
GREENWOOD      CLEAR     63  58  83 VRB3      29.85F
GREENVILLE     CLEAR     62  58  86 W7        29.86S
GRENADA        FAIR      61  55  82 W6        29.84S
OLIVE BRANCH   PTCLDY    59  59 100 W9        29.78S
OXFORD         FAIR      59  55  88 W8        29.82S
TUNICA         MOSUNNY   61  55  82 W12       29.82S
$$

MSZ003>006-009-014>017-022>024-029>033-037>039-250800-
NORTHEAST MISSISSIPPI

CITY           SKY/WX    TMP DP  RH WIND       PRES   REMARKS
BELMONT        PTSUNNY   64  62  93 S12       29.77S
COLUMBUS AFB   CLOUDY    66  65  96 S10       29.82S
CORINTH        CLOUDY    64  63  94 SW13G18   29.74S
GOLDN TRIANGLE CLOUDY    64  61  88 SW8       29.86R
STARKVILLE     CLOUDY    63  63 100 SW6       29.83F
TUPELO         MOCLDY    67  62  84 W13G22    29.77F
$$

MSZ040-058-250800-
CENTRAL MISSISSIPPI

CITY           SKY/WX    TMP DP  RH WIND       PRES   REMARKS
JACKSON INTL   MOCLDY    71  64  78 N10       29.87S
JACKSON HAWKNS CLOUDY    69  58  67 N12G20    29.88R
MERIDIAN KEY   MOCLDY    70  64  81 SW9       29.87F
MERIDIAN NAS   PTCLDY    70  63  78 MISG      29.86F
RAYMOND        LGT RAIN  68  64  88 NW14G30   29.90R
VICKSBURG      CLOUDY    72  67  84 W6        29.88R
$$

MSZ059>079-250800-
SOUTH MISSISSIPPI

CITY           SKY/WX    TMP DP  RH WIND       PRES   REMARKS
BROOKHAVEN     FAIR      70  64  83 S6        29.91F
HATTIESBURG    CLOUDY    71  66  84 SW6       29.92S
MCCOMB         CLEAR     67  64  90 SW3       29.91F
NATCHEZ        CLOUDY    70  64  83 SW6       29.90F
PINE BELT      PTCLDY    70  64  83 SW9       29.91F
$$

MSZ080>082-250800-
COASTAL MISSISSIPPI

CITY           SKY/WX    TMP DP  RH WIND       PRES   REMARKS
BILOXI         MOCLDY    72  70  93 SW12      29.92F
PASCAGOULA     CLOUDY    71  68  90 SW7       29.92F
GULFPORT       CLOUDY    74  68  81 SW6       29.91F
$$



USA.gov is the U.S. government's official web portal to all federal, state and local government web resources and services.